Torna al catalogo

STARLINK-31486

AttivoComunicazioniVLEO
NORAD 59181·PAYLOAD·🇺🇸 United States

Lanciato Mar 10, 2024 da Cape Canaveral Space Force Station

Loading…

Prossimi Passaggi (prossime 24 ore)

TLE

AggiornatoSource: CelesTrak SupGP

Epoca: Sep 15, 2026, 02:49 UTC

1 59181C 24045D   26258.11784722  .00018918  00000+0  68509-3 0  2589
2 59181  43.0026  99.5099 0001355 275.1825 295.9517 15.27575260    15

Traccia STARLINK-31486 in tempo reale con AllMySat

Download on the App Store